Alamosa, CO

8:01 PM MDT on September 21, 2017 (GMT -0600)
San Luis Valley Regional / Bergman Field

Weather History for KALS - March, 2014

Change the Weather History Date:

Saturday, March 29, 2014

  Actual Average Record
Temperature  
Mean Temperature 38 °F 37 °F  
Max Temperature 62 °F 54 °F 69 °F (1986)
Min Temperature 13 °F 20 °F -4 °F (1951)
Degree Days  
Heating Degree Days 27 28  
Month to date heating degree days 826 921  
Since 1 July heating degree days 7394 7250  
Cooling Degree Days 0 0  
Month to date cooling degree days 0 0  
Year to date cooling degree days 0 0  
Moisture  
Dew Point 6 °F    
Average Humidity 41    
Maximum Humidity 73    
Minimum Humidity 9    
Precipitation  
Precipitation 0.00 in 0.02 in 0.26 in (1985)
Month to date precipitation 0.40 0.49  
Year to date precipitation 0.52 1.01  
Snow  
Snow 0.00 in 0.20 in 5.90 in (1985)
Month to date snowfall 3.4 4.6  
Since 1 July snowfall 31.5 22.7  
Snow Depth 0.00 in    
Sea Level Pressure  
Sea Level Pressure 30.17 in    
Wind  
Wind Speed 9 mph (SSW)    
Max Wind Speed 25 mph    
Max Gust Speed 35 mph    
Visibility 10 miles    
Events      
T = Trace of Precipitation, MM = Missing Value Source: NWS Daily Summary

Daily Weather History Graph

Daily Weather History Graph

Search for Another Location

Airport or City:

Trip Planner

Search our weather history database for the weather conditions in past years. The results will help you decide how hot, cold, wet, or windy it might be!

Date:

Astronomy

Mar. 29, 2014 Rise Set
Actual Time 6:53 AM MDT 7:23 PM MDT
Civil Twilight 6:27 AM MDT 7:49 PM MDT
Nautical Twilight 5:56 AM MDT 8:20 PM MDT
Astronomical Twilight 5:24 AM MDT 8:52 PM MDT
Moon 6:02 AM MDT (3/29) 6:32 PM MDT (3/29)
Length of Visible Light 13h 22m
Length of Day
12h 30m
Waning Crescent, 1% of the Moon is Illuminated
Mar 29
Waning Crescent
Mar 30
New
Apr 7
First Quarter
Apr 15
Full
Apr 22
Last Quarter

Hourly Weather History & Observations

Time (MDT) Temp. Windchill Dew Point Humidity Pressure Visibility Wind Dir Wind Speed Gust Speed Precip Events Conditions
12:52 AM 24.1 °F 14.4 °F 5.0 °F 44% 30.25 in 10.0 mi WSW 9.2 mph - N/A   Clear
1:52 AM 23.0 °F 13.1 °F 6.1 °F 48% 30.25 in 10.0 mi West 9.2 mph - N/A   Clear
2:52 AM 21.9 °F 15.7 °F 6.1 °F 51% 30.23 in 10.0 mi West 4.6 mph - N/A   Clear
3:52 AM 18.0 °F 12.7 °F 6.1 °F 60% 30.26 in 10.0 mi WSW 3.5 mph - N/A   Clear
4:52 AM 14.0 °F 8.2 °F 6.1 °F 71% 30.29 in 10.0 mi ESE 3.5 mph - N/A   Clear
5:52 AM 18.0 °F 12.7 °F 6.1 °F 60% 30.28 in 10.0 mi South 3.5 mph - N/A   Clear
6:52 AM 17.1 °F - 6.1 °F 62% 30.32 in 10.0 mi Calm Calm - N/A   Clear
7:52 AM 21.9 °F 17.2 °F 10.0 °F 60% 30.33 in 10.0 mi East 3.5 mph - N/A   Clear
8:52 AM 28.9 °F 25.2 °F 10.9 °F 47% 30.31 in 10.0 mi ESE 3.5 mph - N/A   Clear
9:52 AM 36.0 °F 33.3 °F 9.0 °F 33% 30.29 in 10.0 mi Variable 3.5 mph - N/A   Clear
10:52 AM 43.0 °F 40.3 °F 8.1 °F 24% 30.26 in 10.0 mi SSE 4.6 mph - N/A   Clear
11:52 AM 48.9 °F - 8.1 °F 19% 30.20 in 10.0 mi South 6.9 mph - N/A   Clear
12:52 PM 54.0 °F - 5.0 °F 14% 30.14 in 10.0 mi SW 13.8 mph 18.4 mph N/A   Clear
1:52 PM 57.9 °F - 3.9 °F 11% 30.07 in 10.0 mi Variable 5.8 mph - N/A   Clear
2:52 PM 61.0 °F - 1.9 °F 9% 30.01 in 10.0 mi SW 16.1 mph 29.9 mph N/A   Clear
3:52 PM 60.1 °F - 3.0 °F 10% 30.01 in 10.0 mi SSW 16.1 mph 29.9 mph N/A   Clear
4:52 PM 59.0 °F - 5.0 °F 12% 30.04 in 10.0 mi SW 17.3 mph - N/A   Clear
5:52 PM 55.9 °F - 5.0 °F 13% 30.06 in 10.0 mi WSW 19.6 mph 28.8 mph N/A   Clear
6:52 PM 53.1 °F - 3.9 °F 14% 30.08 in 10.0 mi WSW 16.1 mph - N/A   Clear
7:52 PM 46.0 °F 40.6 °F 5.0 °F 19% 30.11 in 10.0 mi SSW 11.5 mph - N/A   Clear
8:52 PM 42.1 °F 37.7 °F 6.1 °F 23% 30.09 in 10.0 mi SSW 6.9 mph - N/A   Clear
9:52 PM 39.0 °F 32.3 °F 8.1 °F 28% 30.09 in 10.0 mi SW 10.4 mph - N/A   Clear
10:52 PM 42.1 °F 35.2 °F 6.1 °F 23% 30.04 in 10.0 mi SSW 12.7 mph - N/A   Clear
11:52 PM 37.0 °F 30.4 °F 6.1 °F 28% 30.04 in 10.0 mi SW 9.2 mph - N/A   Clear